H1 CPF 2 NER 2023 9 19 9 262 01 glonass145 H2 2213001 9145 54031 2023 9 19 0 0 0 2023 9 22 23 45 0 900 1 1 0 0 0 1 H9 10 0 60206 0.00000 0 -19511040.896 -4758876.304 -15704031.230 10 0 60206 900.00000 0 -17447750.321 -5010856.011 -17901379.712 10 0 60206 1800.00000 0 -15166570.404 -5472329.066 -19750500.260 10 0 60206 2700.00000 0 -12730863.964 -6160789.283 -21215497.470 10 0 60206 3600.00000 0 -10207835.180 -7081712.237 -22267968.025 10 0 60206 4500.00000 0 -7665897.450 -8228143.157 -22887547.005 10 0 60206 5400.00000 0 -5172006.337 -9580821.632 -23062296.251 10 0 60206 6300.00000 0 -2789068.443 -11108838.079 -22788927.989 10 0 60206 7200.00000 0 -573533.508 -12770794.522 -22072860.181 10 0 60206 8100.00000 0 1426731.043 -14516421.166 -20928103.243 10 0 60206 9000.00000 0 3174195.983 -16288581.238 -19376980.851 10 0 60206 9900.00000 0 4642985.012 -18025580.405 -17449690.704 10 0 60206 10800.00000 0 5819695.348 -19663684.391 -15183713.941 10 0 60206 11700.00000 0 6703691.808 -21139739.815 -12623084.747 10 0 60206 12600.00000 0 7306863.927 -22393788.836 -9817534.292 10 0 60206 13500.00000 0 7652858.101 -23371568.533 -6821525.489 10 0 60206 14400.00000 0 7775818.553 -24026790.654 -3693197.161 10 0 60206 15300.00000 0 7718691.332 -24323106.400 -493237.990 10 0 60206 16200.00000 0 7531163.898 -24235674.263 2716288.001 10 0 60206 17100.00000 0 7267327.790 -23752265.170 5873141.802 10 0 60206 18000.00000 0 6983163.476 -22873858.588 8916112.361 10 0 60206 18900.00000 0 6733953.873 -21614704.594 11786199.005 10 0 60206 19800.00000 0 6571735.769 -20001848.967 14427750.631 10 0 60206 20700.00000 0 6542896.746 -18074140.796 16789539.895 10 0 60206 21600.00000 0 6686018.981 -15880763.457 18825751.996 10 0 60206 22500.00000 0 7030060.937 -13479349.506 20496869.406 10 0 60206 23400.00000 0 7592953.808 -10933757.202 21770435.863 10 0 60206 24300.00000 0 8380672.317 -8311600.264 22621685.301 10 0 60206 25200.00000 0 9386819.746 -5681632.530 23034023.871 10 0 60206 26100.00000 0 10592745.726 -3111095.198 22999355.838 10 0 60206 27000.00000 0 11968193.198 -663135.863 22518246.949 10 0 60206 27900.00000 0 13472448.930 1605594.382 21599921.729 10 0 60206 28800.00000 0 15055950.943 3647066.614 20262094.129 10 0 60206 29700.00000 0 16662286.950 5423634.778 18530633.965 10 0 60206 30600.00000 0 18230501.335 6909358.553 16439074.611 10 0 60206 31500.00000 0 19697614.859 8090833.580 14027970.511 10 0 60206 32400.00000 0 21001251.887 8967494.675 11344116.043 10 0 60206 33300.00000 0 22082264.911 9551379.680 8439640.149 10 0 60206 34200.00000 0 22887245.660 9866364.269 5370993.937 10 0 60206 35100.00000 0 23370816.436 9946900.446 2197850.812 10 0 60206 36000.00000 0 23497604.198 9836312.636 -1018059.187 10 0 60206 36900.00000 0 23243813.084 9584724.231 -4214157.500 10 0 60206 37800.00000 0 22598327.928 9246703.321 -7328243.246 10 0 60206 38700.00000 0 21563301.239 8878728.460 -10299712.610 10 0 60206 39600.00000 0 20154198.064 8536583.032 -13070746.552 10 0 60206 40500.00000 0 18399296.259 8272789.793 -15587442.796 10 0 60206 41400.00000 0 16338662.867 8134195.308 -17800869.285 10 0 60206 42300.00000 0 14022649.509 8159807.428 -19668018.107 10 0 60206 43200.00000 0 11509969.964 8378977.928 -21152641.210 10 0 60206 44100.00000 0 8865440.513 8810007.498 -22225951.830 10 0 60206 45000.00000 0 6157477.635 9459232.149 -22867178.446 10 0 60206 45900.00000 0 3455457.409 10320629.574 -23063961.162 10 0 60206 46800.00000 0 827046.371 11375961.937 -22812583.600 10 0 60206 47700.00000 0 -1664385.558 12595448.952 -22118036.590 10 0 60206 48600.00000 0 -3962163.328 13938942.849 -20993913.116 10 0 60206 49500.00000 0 -6018417.608 15357555.852 -19462137.171 10 0 60206 50400.00000 0 -7795821.822 16795671.901 -17552532.148 10 0 60206 51300.00000 0 -9268884.695 18193258.313 -15302237.420 10 0 60206 52200.00000 0 -10424746.254 19488380.653 -12754984.460 10 0 60206 53100.00000 0 -11263445.844 20619815.496 -9960246.535 10 0 60206 54000.00000 0 -11797652.806 21529651.736 -6972278.384 10 0 60206 54900.00000 0 -12051872.741 22165771.467 -3849064.307 10 0 60206 55800.00000 0 -12061164.190 22484106.509 -651195.054 10 0 60206 56700.00000 0 -11869420.903 22450575.949 2559304.888 10 0 60206 57600.00000 0 -11527292.905 22042623.341 5720176.929 10 0 60206 58500.00000 0 -11089834.671 21250288.986 8770131.756 10 0 60206 59400.00000 0 -10613979.848 20076771.959 11650033.296 10 0 60206 60300.00000 0 -10155949.292 18538457.934 14304040.543 10 0 60206 61200.00000 0 -9768701.713 16664411.196 16680685.405 10 0 60206 62100.00000 0 -9499534.272 14495351.171 18733866.112 10 0 60206 63000.00000 0 -9387934.154 12082155.324 20423737.439 10 0 60206 63900.00000 0 -9463771.562 9483949.784 21717480.939 10 0 60206 64800.00000 0 -9745910.330 6765866.022 22589940.781 10 0 60206 65700.00000 0 -10241294.958 3996555.626 23024113.181 10 0 60206 66600.00000 0 -10944553.079 1245565.238 23011480.095 10 0 60206 67500.00000 0 -11838130.958 -1419320.551 22552180.641 10 0 60206 68400.00000 0 -12892957.495 -3934659.069 21655016.541 10 0 60206 69300.00000 0 -14069610.107 -6243745.957 20337290.889 10 0 60206 70200.00000 0 -15319934.873 -8298729.215 18624482.522 10 0 60206 71100.00000 0 -16589054.116 -10062353.501 16549761.323 10 0 60206 72000.00000 0 -17817678.040 -11509262.376 14153352.874 10 0 60206 72900.00000 0 -18944623.900 -12626804.421 11481763.842 10 0 60206 73800.00000 0 -19909436.958 -13415309.779 8586882.390 10 0 60206 74700.00000 0 -20655002.628 -13887825.827 5524970.669 10 0 60206 75600.00000 0 -21130039.161 -14069323.484 2355568.842 10 0 60206 76500.00000 0 -21291364.790 -13995408.156 -859667.777 10 0 60206 77400.00000 0 -21105842.508 -13710590.451 -4058175.228 10 0 60206 78300.00000 0 -20551919.153 -13266190.629 -7177706.701 10 0 60206 79200.00000 0 -19620692.584 -12717966.512 -10157552.767 10 0 60206 80100.00000 0 -18316460.838 -12123566.379 -12939731.159 10 0 60206 81000.00000 0 -16656729.201 -11539915.803 -15470122.002 10 0 60206 81900.00000 0 -14671674.232 -11020650.106 -17699525.619 10 0 60206 82800.00000 0 -12403086.841 -10613701.900 -19584621.817 10 0 60206 83700.00000 0 -9902838.552 -10359146.326 -21088811.839 10 0 60206 84600.00000 0 -7230935.041 -10287395.355 -22182926.794 10 0 60206 85500.00000 0 -4453238.315 -10417817.407 -22845789.198 10 0 60207 0.00000 0 -1638952.677 -10757840.265 -23064617.392 10 0 60207 900.00000 0 1142022.522 -11302574.950 -22835265.794 10 0 60207 1800.00000 0 3821759.830 -12034975.439 -22162296.867 10 0 60207 2700.00000 0 6336885.187 -12926527.642 -21058884.543 10 0 60207 3600.00000 0 8630963.840 -13938437.900 -19546551.135 10 0 60207 4500.00000 0 10656594.181 -15023270.846 -17654743.476 10 0 60207 5400.00000 0 12377123.605 -16126967.643 -15420256.693 10 0 60207 6300.00000 0 13767916.547 -17191159.685 -12886516.888 10 0 60207 7200.00000 0 14817123.494 -18155680.587 -10102736.627 10 0 60207 8100.00000 0 15525920.597 -18961170.927 -7122959.549 10 0 60207 9000.00000 0 15908211.490 -19551666.360 -4005012.451 10 0 60207 9900.00000 0 15989805.387 -19877060.381 -809385.134 10 0 60207 10800.00000 0 15807107.234 -19895338.200 2401940.408 10 0 60207 11700.00000 0 15405376.060 -19574487.791 5566688.853 10 0 60207 12600.00000 0 14836625.566 -18894007.574 8623495.283 10 0 60207 13500.00000 0 14157255.831 -17845947.065 11513090.630 10 0 60207 14400.00000 0 13425516.222 -16435436.385 14179446.082 10 0 60207 15300.00000 0 12698906.330 -14680681.693 16570854.563 10 0 60207 16200.00000 0 12031624.291 -12612425.891 18640928.745 10 0 60207 17100.00000 0 11472169.653 -10272896.060 20349496.746 10 0 60207 18000.00000 0 11061201.399 -7714280.265 21663378.621 10 0 60207 18900.00000 0 10829741.045 -4996795.886 22557029.105 10 0 60207 19800.00000 0 10797796.320 -2186428.369 23013034.484 10 0 60207 20700.00000 0 10973463.451 647567.010 23022454.113 10 0 60207 21600.00000 0 11352546.189 3435298.012 22584999.916 10 0 60207 22500.00000 0 11918708.260 6108894.865 21709050.024 10 0 60207 23400.00000 0 12644153.709 8605086.875 20411495.689 10 0 60207 24300.00000 0 13490807.545 10867590.014 18717423.618 10 0 60207 25200.00000 0 14411948.035 12849206.821 16659638.908 10 0 60207 26100.00000 0 15354222.883 14513551.543 14278036.841 10 0 60207 27000.00000 0 16259965.029 15836328.803 11618834.796 10 0 60207 27900.00000 0 17069710.832 16806112.517 8733678.419 10 0 60207 28800.00000 0 17724814.338 17424592.561 5678638.997 10 0 60207 29700.00000 0 18170046.851 17706279.076 2513121.388 10 0 60207 30600.00000 0 18356071.163 17677677.209 -701296.037 10 0 60207 31500.00000 0 18241684.804 17375967.621 -3902066.230 10 0 60207 32400.00000 0 17795736.213 16847249.195 -7026898.813 10 0 60207 33300.00000 0 16998631.524 16144419.081 -10014981.089 10 0 60207 34200.00000 0 15843367.023 15324780.772 -12808169.826 10 0 60207 35100.00000 0 14336042.580 14447482.405 -15352129.692 10 0 60207 36000.00000 0 12495833.427 13570894.621 -17597395.380 10 0 60207 36900.00000 0 10354420.763 12750039.675 -19500336.242 10 0 60207 37800.00000 0 7954904.574 12034181.000 -21024004.495 10 0 60207 38700.00000 0 5350243.859 11464675.277 -22138850.630 10 0 60207 39600.00000 0 2601289.279 11073177.579 -22823292.551 10 0 60207 40500.00000 0 -225509.849 10880274.925 -23064127.993 10 0 60207 41400.00000 0 -3060628.941 10894605.199 -22856782.990 10 0 60207 42300.00000 0 -5834117.231 11112497.813 -22205392.317 10 0 60207 43200.00000 0 -8478262.989 11518150.395 -21122711.074 10 0 60207 44100.00000 0 -10930164.871 12084333.285 -19629859.725 10 0 60207 45000.00000 0 -13134103.500 12773591.530 -17755907.943 10 0 60207 45900.00000 0 -15043615.867 13539893.212 -15537305.618 10 0 60207 46800.00000 0 -16623187.616 14330654.385 -13017172.131 10 0 60207 47700.00000 0 -17849494.152 15089055.160 -10244457.707 10 0 60207 48600.00000 0 -18712140.299 15756549.258 -7272992.992 10 0 60207 49500.00000 0 -19213869.196 16275461.374 -4160445.182 10 0 60207 50400.00000 0 -19370233.083 16591562.926 -967200.860 10 0 60207 51300.00000 0 -19208741.057 16656517.665 2244802.911 10 0 60207 52200.00000 0 -18767520.749 16430094.131 5413276.662 10 0 60207 53100.00000 0 -18093550.873 15882051.588 8476782.595 10 0 60207 54000.00000 0 -17240539.631 14993619.765 11375921.486 10 0 60207 54900.00000 0 -16266538.526 13758509.736 14054479.637 10 0 60207 55800.00000 0 -15231392.053 12183412.809 16460513.926 10 0 60207 56700.00000 0 -14194130.366 10287965.596 18547354.337 10 0 60207 57600.00000 0 -13210414.203 8104181.537 20274505.063 10 0 60207 58500.00000 0 -12330139.083 5675371.326 21608427.170 10 0 60207 59400.00000 0 -11595298.975 3054595.748 22523188.171 10 0 60207 60300.00000 0 -11038198.804 302713.762 23000966.256 10 0 60207 61200.00000 0 -10680090.614 -2513894.583 23032399.596 10 0 60207 62100.00000 0 -10530290.639 -5325837.348 22616773.871 10 0 60207 63000.00000 0 -10585814.529 -8063349.255 21762044.068 10 0 60207 63900.00000 0 -10831546.501 -10658951.172 20484689.524 10 0 60207 64800.00000 0 -11240935.863 -13050021.059 18809404.226 10 0 60207 65700.00000 0 -11777192.323 -15181170.140 16768627.381 10 0 60207 66600.00000 0 -12394930.418 -17006325.784 14401922.384 10 0 60207 67500.00000 0 -13042194.312 -18490434.463 11755215.295 10 0 60207 68400.00000 0 -13662777.872 -19610713.674 8879906.841 10 0 60207 69300.00000 0 -14198742.061 -20357400.404 5831874.724 10 0 60207 70200.00000 0 -14593022.897 -20733964.753 2670385.518 10 0 60207 71100.00000 0 -14792019.006 -20756779.844 -543062.526 10 0 60207 72000.00000 0 -14748048.249 -20454262.203 -3745942.611 10 0 60207 72900.00000 0 -14421568.251 -19865519.361 -6875924.240 10 0 60207 73800.00000 0 -13783065.498 -19038562.435 -9872094.955 10 0 60207 74700.00000 0 -12814531.757 -18028160.043 -12676154.067 10 0 60207 75600.00000 0 -11510464.127 -16893425.167 -15233554.189 10 0 60207 76500.00000 0 -9878345.375 -15695237.815 -17494567.590 10 0 60207 77400.00000 0 -7938583.368 -14493613.153 -19415256.050 10 0 60207 78300.00000 0 -5723911.389 -13345126.757 -20958325.181 10 0 60207 79200.00000 0 -3278273.904 -12300505.853 -22093846.748 10 0 60207 80100.00000 0 -655244.031 -11402488.016 -22799835.312 10 0 60207 81000.00000 0 2083961.531 -10684037.067 -23062668.633 10 0 60207 81900.00000 0 4872787.661 -10166990.548 -22877344.417 10 0 60207 82800.00000 0 7641870.395 -9861194.704 -22247569.159 10 0 60207 83700.00000 0 10321686.196 -9764162.247 -21185678.094 10 0 60207 84600.00000 0 12845211.375 -9861266.116 -19712388.362 10 0 60207 85500.00000 0 15150481.883 -10126460.008 -17856390.644 10 0 60208 0.00000 0 17182947.817 -10523494.316 -15653787.627 10 0 60208 900.00000 0 18897526.812 -11007575.733 -13147389.087 10 0 60208 1800.00000 0 20260269.343 -11527399.441 -10385880.289 10 0 60208 2700.00000 0 21249571.412 -12027468.551 -7422875.825 10 0 60208 3600.00000 0 21856882.515 -12450602.252 -4315880.006 10 0 60208 4500.00000 0 22086881.666 -12740526.894 -1125172.768 10 0 60208 5400.00000 0 21957115.207 -12844440.667 2087357.218 10 0 60208 6300.00000 0 21497112.547 -12715443.580 5259409.722 10 0 60208 7200.00000 0 20747017.697 -12314730.108 8329477.267 10 0 60208 8100.00000 0 19755794.813 -11613451.901 11238033.383 10 0 60208 9000.00000 0 18579083.351 -10594171.672 13928682.024 10 0 60208 9900.00000 0 17276793.102 -9251846.513 16349246.134 10 0 60208 10800.00000 0 15910539.960 -7594298.484 18452774.690 10 0 60208 11700.00000 0 14541029.671 -5642151.628 20198449.197 10 0 60208 12600.00000 0 13225498.890 -3428236.659 21552372.542 10 0 60208 13500.00000 0 12015320.289 -996486.683 22488225.416 10 0 60208 14400.00000 0 10953871.541 1599631.740 22987777.940 10 0 60208 15300.00000 0 10074756.995 4299088.572 23041246.754 10 0 60208 16200.00000 0 9400456.211 7035581.106 22647490.618 10 0 60208 17100.00000 0 8941455.799 9740051.982 21814040.396 10 0 60208 18000.00000 0 8695900.978 12343331.147 20556962.266 10 0 60208 18900.00000 0 8649781.665 14778793.048 18900556.015 10 0 60208 19800.00000 0 8777645.567 16984919.361 16876893.284 10 0 60208 20700.00000 0 9043808.622 18907660.970 14525203.744 10 0 60208 21600.00000 0 9404012.146 20502500.929 11891120.149 10 0 60208 22500.00000 0 9807456.929 21736132.166 9025796.180 10 0 60208 23400.00000 0 10199128.372 22587679.543 5984913.709 10 0 60208 24300.00000 0 10522313.990 23049414.824 2827598.666 10 0 60208 25200.00000 0 10721206.149 23126934.350 -384733.251 10 0 60208 26100.00000 0 10743478.874 22838791.951 -3589577.956 10 0 60208 27000.00000 0 10542728.433 22215602.759 -6724567.268 10 0 60208 27900.00000 0 10080673.004 21298656.105 -9728691.317 10 0 60208 28800.00000 0 9329016.912 20138096.674 -12543494.152 10 0 60208 29700.00000 0 8270899.214 18790751.412 -15114218.367 10 0 60208 30600.00000 0 6901864.183 17317694.686 -17390875.632 10 0 60208 31500.00000 0 5230311.626 15781655.168 -19329221.783 10 0 60208 32400.00000 0 3277407.184 14244374.296 -20891617.276 10 0 60208 33300.00000 0 1076455.596 12764027.913 -22047756.399 10 0 60208 34200.00000 0 -1328237.339 11392819.541 -22775251.422 10 0 60208 35100.00000 0 -3882966.970 10174846.141 -23060060.954 10 0 60208 36000.00000 0 -6526629.671 9144325.259 -22896754.921 10 0 60208 36900.00000 0 -9193037.345 8324256.991 -22288611.754 10 0 60208 37800.00000 0 -11813450.628 7725575.659 -21247546.655 10 0 60208 38700.00000 0 -14319225.879 7346825.387 -19793872.881 10 0 60208 39600.00000 0 -16644466.427 7174371.758 -17955901.151 10 0 60208 40500.00000 0 -18728568.549 7183139.279 -15769385.212 10 0 60208 41400.00000 0 -20518557.055 7337842.378 -13276824.413 10 0 60208 42300.00000 0 -21971114.117 7594657.100 -10526636.858 10 0 60208 43200.00000 0 -23054217.780 7903262.239 -7572219.085 10 0 60208 44100.00000 0 -23748322.810 8209163.295 -4470910.406 10 0 60208 45000.00000 0 -24047035.534 8456200.764 -1282881.903 10 0 60208 45900.00000 0 -23957255.485 8589136.670 1930028.450 10 0 60208 46800.00000 0 -23498778.762 8556209.985 5105512.068 10 0 60208 47700.00000 0 -22703380.506 8311552.912 8181994.295 10 0 60208 48600.00000 0 -21613415.432 7817365.880 11099824.014 10 0 60208 49500.00000 0 -20279995.472 7045759.220 13802425.487 10 0 60208 50400.00000 0 -18760821.203 5980183.494 16237390.379 10 0 60208 51300.00000 0 -17117757.685 4616387.603 18357489.238 10 0 60208 52200.00000 0 -15414256.040 2962863.414 20121583.295 10 0 60208 53100.00000 0 -13712728.196 1040757.058 21495419.419 10 0 60208 54000.00000 0 -12071984.059 -1116750.902 22452293.316 10 0 60208 54900.00000 0 -10544837.613 -3465572.277 22973568.496 10 0 60208 55800.00000 0 -9175981.408 -5952299.772 23049041.121 10 0 60208 56700.00000 0 -8000217.695 -8516192.920 22677143.652 10 0 60208 57600.00000 0 -7041119.709 -11091480.508 21864983.022 10 0 60208 58500.00000 0 -6310178.835 -13609885.222 20628212.019 10 0 60208 59400.00000 0 -5806473.173 -16003266.751 18990735.581 10 0 60208 60300.00000 0 -5516871.393 -18206274.269 16984256.740 10 0 60208 61200.00000 0 -5416763.352 -20158898.308 14647670.014 10 0 60208 62100.00000 0 -5471286.792 -21808815.802 12026313.095 10 0 60208 63000.00000 0 -5636998.419 -23113430.232 9171090.551 10 0 60208 63900.00000 0 -5863918.664 -24041521.165 6137486.111 10 0 60208 64800.00000 0 -6097863.345 -24574433.623 2984482.537 10 0 60208 65700.00000 0 -6282962.932 -24706756.924 -226589.729 10 0 60208 66600.00000 0 -6364261.830 -24446464.092 -3433252.163 10 0 60208 67500.00000 0 -6290286.446 -23814505.846 -6573101.893 10 0 60208 68400.00000 0 -6015471.926 -22843876.360 -9585034.727 10 0 60208 69300.00000 0 -5502343.378 -21578190.491 -12410442.625 10 0 60208 70200.00000 0 -4723357.879 -20069832.971 -14994361.310 10 0 60208 71100.00000 0 -3662328.068 -18377758.230 -17286544.916 10 0 60208 72000.00000 0 -2315366.044 -16565034.158 -19242446.183 10 0 60208 72900.00000 0 -691306.775 -14696233.786 -20824082.923 10 0 60208 73800.00000 0 1188407.635 -12834784.905 -22000774.029 10 0 60208 74700.00000 0 3290378.599 -11040389.020 -22749731.046 10 0 60208 75600.00000 0 5570409.911 -9366617.722 -23056494.444 10 0 60208 76500.00000 0 7975126.807 -7858786.561 -22915206.825 10 0 60208 77400.00000 0 10443987.945 -6552194.565 -22328718.485 10 0 60208 78300.00000 0 12911606.847 -5470801.827 -21308524.036 10 0 60208 79200.00000 0 15310286.441 -4626399.045 -19874531.853 10 0 60208 80100.00000 0 17572661.656 -4018302.178 -18054671.291 10 0 60208 81000.00000 0 19634340.501 -3633583.329 -15884345.563 10 0 60208 81900.00000 0 21436434.341 -3447826.579 -13405741.001 10 0 60208 82800.00000 0 22927872.486 -3426375.549 -10667006.162 10 0 60208 83700.00000 0 24067405.394 -3526018.978 -7721316.606 10 0 60208 84600.00000 0 24825213.554 -3697042.342 -4625843.421 10 0 60208 85500.00000 0 25184055.666 -3885558.252 -1440645.395 10 0 60209 0.00000 0 25139908.867 -4036016.783 1772493.451 10 0 60209 900.00000 0 24702074.756 -4093789.507 4951260.282 10 0 60209 1800.00000 0 23892747.525 -4007717.682 8034016.364 10 0 60209 2700.00000 0 22746062.570 -3732517.118 10960989.062 10 0 60209 3600.00000 0 21306665.708 -3230937.780 13675425.735 10 0 60209 4500.00000 0 19627863.006 -2475586.835 16124689.175 10 0 60209 5400.00000 0 17769428.511 -1450337.829 18261273.476 10 0 60209 6300.00000 0 15795161.214 -151265.965 20043721.150 10 0 60209 7200.00000 0 13770292.788 1412930.853 21437424.177 10 0 60209 8100.00000 0 11758853.769 3221044.152 22415294.000 10 0 60209 9000.00000 0 9821107.292 5239997.116 22958287.827 10 0 60209 9900.00000 0 8011156.772 7425991.771 23055781.253 10 0 60209 10800.00000 0 6374826.515 9726115.098 22705779.956 10 0 60209 11700.00000 0 4947903.068 12080338.934 21914966.063 10 0 60209 12600.00000 0 3754810.193 14423831.958 20698577.729 10 0 60209 13500.00000 0 2807772.420 16689488.855 19080123.476 10 0 60209 14400.00000 0 2106501.881 18810572.339 17090935.870 10 0 60209 15300.00000 0 1638421.370 20723358.504 14769572.193 10 0 60209 16200.00000 0 1379414.085 22369675.342 12161072.796 10 0 60209 17100.00000 0 1295068.300 23699228.248 9316090.718 10 0 60209 18000.00000 0 1342364.240 24671614.706 6289909.009 10 0 60209 18900.00000 0 1471731.447 25257943.136 3141364.647 10 0 60209 19800.00000 0 1629389.013 25441987.241 -68299.837 10 0 60209 20700.00000 0 1759868.723 25220826.698 -3276634.146 10 0 60209 21600.00000 0 1808613.134 24604946.739 -6421203.300 10 0 60209 22500.00000 0 1724537.251 23617792.173 -9440811.268 10 0 60209 23400.00000 0 1462443.910 22294794.590 -12276700.215 10 0 60209 24300.00000 0 985189.220 20681913.970 -14873701.089 10 0 60209 25200.00000 0 265505.126 18833756.454 -17181312.350 10 0 60209 26100.00000 0 -712599.086 16811348.004 -19154685.271 10 0 60209 27000.00000 0 -1952916.522 14679658.002 -20755496.424 10 0 60209 27900.00000 0 -3446643.242 12504977.112 -21952690.476 10 0 60209 28800.00000 0 -5172517.108 10352259.559 -22723079.181 10 0 60209 29700.00000 0 -7097489.630 8282540.969 -23051785.533 10 0 60209 30600.00000 0 -9177903.074 6350539.332 -22932525.156 10 0 60209 31500.00000 0 -11361123.920 4602538.566 -22367720.203 10 0 60209 32400.00000 0 -13587564.754 3074641.932 -21368444.282 10 0 60209 33300.00000 0 -15793010.557 1791466.802 -19954200.058 10 0 60209 34200.00000 0 -17911152.652 765333.681 -18152534.281 10 0 60209 35100.00000 0 -19876225.059 -4018.407 -15998498.039 10 0 60209 36000.00000 0 -21625633.756 -529180.077 -13533962.760 10 0 60209 36900.00000 0 -23102469.592 -834295.580 -10806805.349 10 0 60209 37800.00000 0 -24257800.467 -953796.773 -7869978.143 10 0 60209 38700.00000 0 -25052647.571 -930701.697 -4780481.658 10 0 60209 39600.00000 0 -25459563.582 -814550.446 -1598259.979 10 0 60209 40500.00000 0 -25463747.245 -659066.190 1614959.871 10 0 60209 41400.00000 0 -25063648.278 -519640.591 4796862.174 10 0 60209 42300.00000 0 -24271037.482 -450750.142 7885747.273 10 0 60209 43200.00000 0 -23110539.360 -503412.721 10821723.630 10 0 60209 44100.00000 0 -21618646.990 -722791.949 13547864.317 10 0 60209 45000.00000 0 -19842260.270 -1146050.596 16011305.793 10 0 60209 45900.00000 0 -17836808.427 -1800543.839 18164268.088 10 0 60209 46800.00000 0 -15664034.713 -2702428.929 19964977.145 10 0 60209 47700.00000 0 -13389535.211 -3855750.498 21378471.892 10 0 60209 48600.00000 0 -11080153.611 -5252040.926 22377280.958 10 0 60209 49500.00000 0 -8801339.667 -6870453.844 22941956.289 10 0 60209 50400.00000 0 -6614580.511 -8678426.730 23061453.513 10 0 60209 51300.00000 0 -4575010.877 -10632846.598 22733351.702 10 0 60209 52200.00000 0 -2729300.964 -12681671.857 21963907.960 10 0 60209 53100.00000 0 -1113909.254 -14765944.324 20767945.223 10 0 60209 54000.00000 0 246227.433 -16822108.910 19168574.668 10 0 60209 54900.00000 0 1338512.398 -18784545.369 17196757.143 10 0 60209 55800.00000 0 2162982.160 -20588207.166 14890711.144 10 0 60209 56700.00000 0 2732062.204 -22171257.541 12295177.854 10 0 60209 57600.00000 0 3069795.976 -23477592.468 9460556.707 10 0 60209 58500.00000 0 3210579.937 -24459144.355 6441927.786 10 0 60209 59400.00000 0 3197458.528 -25077869.177 3297979.836 10 0 60209 60300.00000 0 3080051.742 -25307332.728 89864.892 10 0 60209 61200.00000 0 2912203.826 -25133828.390 -3119997.649 10 0 60209 62100.00000 0 2749453.724 -24556978.570 -6269143.458 10 0 60209 63000.00000 0 2646435.625 -23589793.837 -9296287.463 10 0 60209 63900.00000 0 2654321.065 -22258186.896 -12142524.862 10 0 60209 64800.00000 0 2818412.231 -20599961.698 -14752484.633 10 0 60209 65700.00000 0 3175989.629 -18663320.325 -17075412.272 10 0 60209 66600.00000 0 3754506.250 -16504950.686 -19066160.113 10 0 60209 67500.00000 0 4570205.463 -14187775.654 -20686065.739 10 0 60209 68400.00000 0 5627221.726 -11778458.342 -21903701.471 10 0 60209 69300.00000 0 6917202.533 -9344768.162 -22695480.705 10 0 60209 70200.00000 0 8419467.947 -6952917.777 -23046109.906 10 0 60209 71100.00000 0 10101701.346 -4664981.828 -22948878.163 10 0 60209 72000.00000 0 11921142.642 -2536504.497 -22405779.443 10 0 60209 72900.00000 0 13826234.256 -614394.673 -21427465.863 10 0 60209 73800.00000 0 15758651.216 1064804.842 -20033033.455 10 0 60209 74700.00000 0 17655630.729 2476203.444 -18249645.069 10 0 60209 75600.00000 0 19452504.143 3607352.285 -16111997.979 10 0 60209 76500.00000 0 21085325.825 4458506.145 -13661646.668 10 0 60209 77400.00000 0 22493489.368 5042348.529 -10946193.990 10 0 60209 78300.00000 0 23622222.096 5383193.300 -8018366.325 10 0 60209 79200.00000 0 24424853.881 5515697.994 -4934990.608 10 0 60209 80100.00000 0 24864765.603 5483144.234 -1755892.999 10 0 60209 81000.00000 0 24916936.046 5335358.820 1457259.519 10 0 60209 81900.00000 0 24569022.646 5126363.872 4642152.258 10 0 60209 82800.00000 0 23821930.939 4911855.704 7737027.579 10 0 60209 83700.00000 0 22689848.981 4746619.185 10681878.067 10 0 60209 84600.00000 0 21199745.107 4681986.885 13419605.254 10 0 60209 85500.00000 0 19390349.850 4763450.318 15897121.686 99